This demonstration page uses our WeatherBlox Daily Observations layout. Learn more.

Left ArrowRight Arrow

Hourly Observations for June 18, 2021

Temp ( °F °C ) Dew Point ( °F °C ) Humidity (%) Winds ( mph kmh ) Pressure ( in mb ) Visibility ( mi km ) Precip ( " mm )
12:53 am 00:53 Clear 83 28.3 43 6.1 24 24 undefined N/A 29.70 1006 10 16 0.00 0.00
1:53 am 01:53 Clear 77 25 45 7.2 32 32 Calm 29.71 1006 10 16 0.00 0.00
2:53 am 02:53 Clear 74 23.3 47 8.3 38 38 Calm 29.70 1006 10 16 0.00 0.00
3:53 am 03:53 Clear 71 21.7 47 8.3 42 42 Calm 29.70 1006 10 16 0.00 0.00
4:53 am 04:53 Clear 70 21.1 46 7.8 42 42 Calm 29.70 1006 10 16 0.00 0.00
5:53 am 05:53 Sunny 76 24.4 47 8.3 36 36 NW 6 9 29.71 1006 10 16 0.00 0.00
6:53 am 06:53 Sunny 80 26.7 48 8.9 33 33 NW 7 11 29.71 1006 10 16 0.00 0.00
7:53 am 07:53 Sunny 86 30 50 10 29 29 NW 7 11 29.72 1007 10 16 0.00 0.00
8:53 am 08:53 Sunny 92 33.3 47 8.3 21 21 NNW 8 13 29.73 1007 10 16 0.00 0.00
9:53 am 09:53 Sunny 95 35 48 8.9 20 20 N 8 13 29.73 1007 10 16 0.00 0.00
10:53 am 10:53 Sunny 98 36.7 48 8.9 18 18 VRB 3 6 29.72 1006 10 16 0.00 0.00
11:53 am 11:53 Sunny 102 38.9 44 6.7 14 14 NE 9 15 29.70 1006 10 16 0.00 0.00
12:53 pm 12:53 Sunny 104 40 43 6.1 12 12 VRB 5 7 29.68 1005 10 16 0.00 0.00
1:53 pm 13:53 Sunny 107 41.7 38 3.3 9 9 VRB 5 7 29.66 1004 10 16 0.00 0.00
2:53 pm 14:53 Sunny 107 41.7 35 1.7 8 8 SSW 6 9 29.64 1004 10 16 0.00 0.00
3:53 pm 15:53 Sunny 108 42.2 34 1.1 8 8 S 9 15 29.62 1003 10 16 0.00 0.00
4:53 pm 16:53 Sunny 109 42.8 34 1.1 7 7 S 8 13 29.60 1002 10 16 0.00 0.00
5:53 pm 17:53 Sunny 109 42.8 34 1.1 7 7 Calm 29.58 1002 10 16 0.00 0.00
6:53 pm 18:53 Sunny 108 42.2 32 0 7 7 S 8 13 29.57 1001 10 16 0.00 0.00
7:53 pm 19:53 Sunny 106 41.1 34 1.1 8 8 S 5 7 29.57 1001 10 16 0.00 0.00
8:53 pm 20:53 Clear 96 35.6 39 3.9 14 14 Calm 29.57 1002 10 16 0.00 0.00
9:53 pm 21:53 Clear 93 33.9 44 6.7 18 18 WNW 6 9 29.60 1003 10 16 0.00 0.00
10:53 pm 22:53 Clear 90 32.2 44 6.7 20 20 NE 5 7 29.62 1003 10 16 0.00 0.00
11:53 pm 23:53 Clear 87 30.6 44 6.7 22 22 N 8 13 29.64 1004 10 16 0.00 0.00

Powered by AerisWeather